This demonstration page uses our WeatherBlox Daily Observations layout. Learn more.

Hourly Observations for August 1, 2016

Temp ( °F °C ) Dew Point ( °F °C ) Humidity (%) Winds ( mph kmh ) Pressure ( in mb ) Visibility ( mi km ) Precip ( " mm )
12:15 am 00:15 Clear 76 24.6 73 22.6 89 89 SE 10 17 29.74 1007 10 16.09344 0 0
12:35 am 00:35 Clear 76 24.5 73 22.6 89 89 SE 10 17 29.74 1007 10 16.09344 0 0
12:55 am 00:55 Clear 76 24.5 73 22.6 89 89 SE 7 11 29.74 1007 10 16.09344 0 0
1:15 am 01:15 Clear 76 24.3 73 22.5 90 90 SSE 8 13 29.74 1007 10 16.09344 0 0
1:35 am 01:35 Clear 75 24.1 72 22.2 89 89 SSE 9 15 29.71 1006 10 16.09344 0 0
1:55 am 01:55 Clear 75 23.7 71 21.7 89 89 SSE 8 13 29.71 1006 10 16.09344 0 0
2:15 am 02:15 Clear 75 23.7 71 21.4 87 87 S 8 13 29.71 1006 10 16.09344 0 0
2:35 am 02:35 Clear 75 23.7 70 21 85 85 S 7 11 29.71 1006 10 16.09344 0 0
2:55 am 02:55 Clear 74 23.5 69 20.6 84 84 S 8 13 29.71 1006 10 16.09344 0 0
3:15 am 03:15 Clear 74 23.6 68 20.1 81 81 S 9 15 29.71 1006 10 16.09344 0 0
3:35 am 03:35 Clear 73 22.7 68 19.8 84 84 SSW 5 7 29.71 1006 10 16.09344 0 0
3:55 am 03:55 Clear 73 22.6 67 19.6 83 83 SSW 3 6 29.71 1006 10 16.09344 0 0
4:15 am 04:15 Clear 71 21.8 67 19.2 85 85 Calm 29.71 1006 10 16.09344 0 0
4:35 am 04:35 Clear 71 21.8 66 19 84 84 SW 3 6 29.71 1006 10 16.09344 0 0
4:55 am 04:55 Clear 70 21.2 66 18.8 86 86 SW 3 6 29.74 1007 10 16.09344 0 0
5:15 am 05:15 Clear 70 21.1 66 18.7 86 86 SSW 6 9 29.74 1007 10 16.09344 0 0
5:35 am 05:35 Clear 69 20.8 65 18.4 86 86 SSW 3 6 29.74 1007 10 16.09344 0 0
5:55 am 05:55 Clear 69 20.6 65 18.1 86 86 SSW 6 9 29.74 1007 10 16.09344 0 0
6:15 am 06:15 Clear 69 20.4 64 17.8 85 85 SW 3 6 29.74 1007 10 16.09344 0 0
6:35 am 06:35 Clear 68 20.1 64 17.7 86 86 SW 3 6 29.74 1007 10 16.09344 0 0
6:55 am 06:55 Sunny 69 20.6 64 17.5 83 83 SW 3 6 29.77 1008 10 16.09344 0 0
7:15 am 07:15 Sunny 69 20.8 64 17.5 82 82 Calm 29.77 1008 10 16.09344 0 0
7:35 am 07:35 Sunny 72 22.2 64 18 77 77 Calm 29.74 1007 10 16.09344 0 0
7:55 am 07:55 Sunny 74 23.5 63 17.3 68 68 Calm 29.74 1007 10 16.09344 0 0
8:15 am 08:15 Sunny 77 25 64 17.7 64 64 S 5 7 29.77 1008 10 16.09344 0 0
8:35 am 08:35 Sunny 79 26 63 17.1 58 58 S 3 6 29.74 1007 10 16.09344 0 0
8:55 am 08:55 Sunny 80 26.5 62 16.4 54 54 Calm 29.74 1007 10 16.09344 0 0
9:15 am 09:15 Sunny 80 26.7 61 15.9 52 52 Calm 29.74 1007 10 16.09344 0 0
9:35 am 09:35 Sunny 82 27.5 62 16.5 51 51 SW 5 7 29.74 1007 10 16.09344 0 0
9:55 am 09:55 Sunny 80 26.8 64 17.5 57 57 S 5 7 29.74 1007 10 16.09344 0 0
10:15 am 10:15 Sunny 80 26.6 64 17.8 59 59 Calm 29.74 1007 10 16.09344 0 0
10:35 am 10:35 Sunny 81 27.3 65 18.2 58 58 Calm 29.74 1007 10 16.09344 0 0
10:55 am 10:55 Sunny 83 28.1 65 18.2 55 55 NE 5 7 29.77 1008 10 16.09344 0 0
11:15 am 11:15 Sunny 83 28.5 65 18.5 55 55 ENE 7 11 29.77 1008 10 16.09344 0 0
11:35 am 11:35 Sunny 84 29 66 18.7 54 54 E 6 9 29.77 1008 10 16.09344 0 0
11:55 am 11:55 Sunny 85 29.6 65 18.4 51 51 SE 3 6 29.77 1008 10 16.09344 0 0
12:15 pm 12:15 Sunny 86 29.9 66 19 52 52 SSE 5 7 29.74 1007 10 16.09344 0 0
12:35 pm 12:35 Sunny 87 30.3 66 18.7 50 50 E 3 6 29.74 1007 10 16.09344 0 0
12:55 pm 12:55 Sunny 87 30.7 67 19.3 51 51 ESE 8 13 29.74 1007 10 16.09344 0 0
1:15 pm 13:15 Sunny 87 30.5 69 20.5 55 55 E 9 15 29.74 1007 10 16.09344 0 0
1:35 pm 13:35 Sunny 88 30.9 69 20.8 55 55 E 12 19 29.74 1007 10 16.09344 0 0
1:55 pm 13:55 Sunny 89 31.7 71 21.5 55 55 E 13 20 29.74 1007 10 16.09344 0 0
2:15 pm 14:15 Sunny 90 32.3 71 21.8 54 54 ESE 13 20 29.74 1007 10 16.09344 0 0
2:35 pm 14:35 Sunny 92 33.1 69 20.6 48 48 ESE 13 20 29.71 1006 10 16.09344 0 0
2:55 pm 14:55 Sunny 92 33.6 69 20.3 46 46 SSE 13 20 29.68 1005 10 16.09344 0 0
3:15 pm 15:15 Sunny 93 33.7 64 17.6 38 38 SE 14 22 29.68 1005 10 16.09344 0 0
3:35 pm 15:35 Sunny 92 33.6 67 19.7 44 44 SSE 10 17 29.68 1005 10 16.09344 0 0
3:55 pm 15:55 Sunny 92 33.3 69 20.5 47 47 SSE 15 24 29.68 1005 10 16.09344 0 0
4:15 pm 16:15 Sunny 93 33.7 68 19.9 44 44 SSE 13 20 29.68 1005 10 16.09344 0 0
4:35 pm 16:35 Sunny 93 33.9 69 20.3 45 45 SSE 13 20 29.68 1005 10 16.09344 0 0
4:55 pm 16:55 Sunny 93 33.9 68 19.8 43 43 SSE 13 20 29.68 1005 10 16.09344 0 0
5:15 pm 17:15 Sunny 92 33.5 68 20 45 45 SE 10 17 29.68 1005 10 16.09344 0 0
5:35 pm 17:35 Sunny 94 34.5 69 20.8 45 45 SE 13 20 29.65 1004 10 16.09344 0 0
5:55 pm 17:55 Sunny 94 34.3 69 20.4 44 44 SE 13 20 29.65 1004 10 16.09344 0 0
6:15 pm 18:15 Sunny 93 34 69 20.4 45 45 SE 9 15 29.65 1004 10 16.09344 0 0
6:35 pm 18:35 Sunny 90 32.3 69 20.5 50 50 ESE 8 13 29.68 1005 10 16.09344 0 0
6:55 pm 18:55 Sunny 86 30 71 21.7 61 61 ESE 13 20 29.65 1004 10 16.09344 0 0
7:15 pm 19:15 Sunny 85 29.5 72 22 64 64 E 7 11 29.71 1006 10 16.09344 0 0
7:35 pm 19:35 Sunny 84 29 72 22.4 68 68 ESE 7 11 29.74 1007 10 16.09344 0 0
7:55 pm 19:55 Sunny 83 28.5 73 22.5 70 70 ESE 8 13 29.74 1007 10 16.09344 0 0
8:15 pm 20:15 Sunny 83 28.3 73 22.8 72 72 ESE 8 13 29.74 1007 10 16.09344 0 0
8:35 pm 20:35 Sunny 83 28.3 73 22.7 72 72 ESE 12 19 29.74 1007 10 16.09344 0 0
8:55 pm 20:55 Clear 82 28 73 22.7 73 73 E 9 15 29.74 1007 10 16.09344 0 0
9:15 pm 21:15 Clear with Light Rain 82 28 73 23 74 74 NE 7 11 29.74 1007 10 16.09344 0 0
9:35 pm 21:35 Clear 84 28.8 73 22.5 69 69 E 16 26 29.77 1008 10 16.09344 0 0
9:55 pm 21:55 Clear with Light Drizzle 81 27.3 74 23.2 78 78 ENE 6 9 29.77 1008 10 16.09344 0 0
10:15 pm 22:15 Clear 80 26.7 74 23.5 83 83 E 7 11 29.77 1008 10 16.09344 0 0
10:35 pm 22:35 Clear 80 26.5 74 23.6 84 84 W 7 11 29.8 1009 10 16.09344 0 0
10:55 pm 22:55 Clear 80 26.6 74 23.4 83 83 W 3 6 29.8 1009 10 16.09344 0 0
11:15 pm 23:15 Clear 80 26.4 74 23.3 83 83 Calm 29.8 1009 10 16.09344 0 0
11:35 pm 23:35 Clear 78 25.4 74 23.2 88 88 NE 3 6 29.83 1010 10 16.09344 0 0
11:55 pm 23:55 Clear 77 25.1 74 23.1 89 89 E 7 11 29.8 1009 10 16.09344 0 0

Powered by AerisWeather